Location: Newark
(45.5167°N, 11.1667°E)
Time: 19:31:58
(UTC+00:00)

Explorer 7 - Pass Details

Date: 22 December 2019
Orbit: 485 x 679 km, 50.3° (Epoch: 24 January)

Event Time Altitude Azimuth Distance (km) Brightness Sun altitude
Rises 15:49:11 0° 295° (WNW) 3,001 11.1 -3.0°
Reaches altitude 10° 15:51:31 10° 294° (WNW) 2,102 10.3 -3.3°
Maximum altitude 15:56:25 83° 208° (SSW) 688 7.4 -4.1°
Drops below altitude 10° 16:01:20 10° 120° (ESE) 2,108 9.5 -4.8°
Sets 16:03:40 0° 120° (ESE) 3,010 10.3 -5.2°
